Location: Gugi
(45.4667°N, 11.1000°E)
Time: 04:56:53
(UTC+00:00)

USA 229 - Pass Details

Date: 17 November 2019
Orbit: 998 x 1215 km, 63.4° (Epoch: 11 December)

Event Time Altitude Azimuth Distance (km) Brightness Sun altitude
Rises 16:32:36 0° 215° (SW) 3,718 7.5 -8.7°
Reaches altitude 10° 16:35:08 10° 215° (SW) 2,784 6.8 -9.1°
Maximum altitude 16:41:41 89° 127° (SE) 1,045 3.7 -10.2°
Drops below altitude 10° 16:48:36 10° 39° (NE) 2,923 5.5 -11.4°
Enters shadow 16:49:18 - 39° (NE) 3,180 5.7 -11.5°
